Location: *
(58.4167°N, 22.5000°E)
Time: 02:45:56
(UTC+00:00)

NOSS 2-1 (E) - Pass Details

Date: 22 September 2019
Orbit: 462 x 1742 km, 63.3° (Epoch: 13 October)

Event Time Altitude Azimuth Distance (km) Brightness Sun altitude
Rises 17:43:37 0° 274° (W) 2,621 8.6 -10.2°
Reaches altitude 10° 17:45:38 10° 281° (W) 1,821 7.5 -10.5°
Maximum altitude 17:49:31 46° 356° (N) 859 4.5 -11.0°
Drops below altitude 10° 17:54:35 10° 70° (ENE) 2,372 6.1 -11.6°
Enters shadow 17:55:02 - 72° (ENE) 2,549 6.2 -11.7°
